Time,TemperatureF,DewpointF,PressureIn,WindDirection,WindDirectionDegrees,WindSpeedMPH,WindSpeedGustMPH,Humidity,HourlyPrecipIn,Conditions,Clouds,dailyrainin,SoftwareType,DateUTC
2013-02-21 00:04:00,34.0,0.0,29.89,ENE,63,2.0,3.0,49,-99.99,,,-99.99,,2013-02-21 08:04:00,
2013-02-21 00:12:00,35.0,0.0,29.89,NNE,17,2.0,2.0,44,-99.99,,,-99.99,,2013-02-21 08:12:00,
2013-02-21 00:20:00,33.0,0.0,29.89,NNE,32,2.0,2.0,46,-99.99,,,-99.99,,2013-02-21 08:20:00,
2013-02-21 00:28:00,33.0,0.0,29.89,SE,138,2.0,2.0,48,-99.99,,,-99.99,,2013-02-21 08:28:00,
2013-02-21 00:36:00,33.0,0.0,29.89,NE,34,3.0,3.0,46,-99.99,,,-99.99,,2013-02-21 08:36:00,
2013-02-21 00:44:00,30.0,0.0,29.89,ENE,57,2.0,3.0,47,-99.99,,,-99.99,,2013-02-21 08:44:00,
2013-02-21 00:52:00,32.0,0.0,29.89,East,92,5.0,5.0,45,-99.99,,,-99.99,,2013-02-21 08:52:00,
2013-02-21 01:00:00,34.0,0.0,29.89,SSE,148,3.0,3.0,46,-99.99,,,-99.99,,2013-02-21 09:00:00,
2013-02-21 01:08:00,33.0,0.0,29.89,SSE,159,0.0,0.0,46,-99.99,,,-99.99,,2013-02-21 09:08:00,
2013-02-21 01:16:00,32.0,0.0,29.90,SW,224,0.0,2.0,48,-99.99,,,-99.99,,2013-02-21 09:16:00,
2013-02-21 01:24:00,31.0,0.0,29.90,South,182,5.0,5.0,51,-99.99,,,-99.99,,2013-02-21 09:24:00,
2013-02-21 01:32:00,0.0,0.0,-0.01,North,0,0.0,0.0,0,-99.99,,,-99.99,,2013-02-21 09:32:00,
2013-02-21 01:40:00,32.0,0.0,29.90,WSW,254,0.0,0.0,51,-99.99,,,-99.99,,2013-02-21 09:40:00,
2013-02-21 01:48:00,32.0,0.0,29.90,North,353,0.0,0.0,49,-99.99,,,-99.99,,2013-02-21 09:48:00,
2013-02-21 01:56:00,0.0,0.0,-0.01,North,0,0.0,0.0,0,-99.99,,,-99.99,,2013-02-21 09:56:00,
2013-02-21 02:04:00,30.0,0.0,29.89,North,361,0.0,1.0,50,-99.99,,,-99.99,,2013-02-21 10:04:00,
2013-02-21 02:12:00,28.0,0.0,29.90,North,353,3.0,3.0,48,-99.99,,,-99.99,,2013-02-21 10:12:00,
2013-02-21 02:20:00,27.0,0.0,29.89,NNE,27,5.0,5.0,50,-99.99,,,-99.99,,2013-02-21 10:20:00,
2013-02-21 02:28:00,28.0,0.0,29.89,ENE,63,6.0,6.0,51,-99.99,,,-99.99,,2013-02-21 10:28:00,
2013-02-21 02:36:00,28.0,0.0,29.89,ENE,75,8.0,8.0,49,-99.99,,,-99.99,,2013-02-21 10:36:00,
2013-02-21 02:44:00,0.0,0.0,-0.01,North,0,0.0,0.0,0,-99.99,,,-99.99,,2013-02-21 10:44:00,
2013-02-21 02:52:00,29.0,0.0,29.89,ESE,104,3.0,3.0,54,-99.99,,,-99.99,,2013-02-21 10:52:00,
2013-02-21 03:00:00,29.0,0.0,29.88,East,93,1.0,1.0,50,-99.99,,,-99.99,,2013-02-21 11:00:00,
2013-02-21 03:08:00,30.0,0.0,29.89,NNW,344,0.0,0.0,51,-99.99,,,-99.99,,2013-02-21 11:08:00,
2013-02-21 03:16:00,28.0,0.0,29.89,WNW,299,0.0,0.0,50,-99.99,,,-99.99,,2013-02-21 11:16:00,
2013-02-21 03:24:00,27.0,0.0,29.89,North,361,0.0,0.0,54,-99.99,,,-99.99,,2013-02-21 11:24:00,
2013-02-21 03:32:00,0.0,0.0,-0.01,North,0,0.0,0.0,0,-99.99,,,-99.99,,2013-02-21 11:32:00,
2013-02-21 03:40:00,25.0,0.0,29.89,North,352,0.0,0.0,53,-99.99,,,-99.99,,2013-02-21 11:40:00,
2013-02-21 03:48:00,0.0,0.0,-0.01,North,0,0.0,0.0,0,-99.99,,,-99.99,,2013-02-21 11:48:00,
2013-02-21 03:56:00,27.0,0.0,29.89,NE,43,0.0,0.0,53,-99.99,,,-99.99,,2013-02-21 11:56:00,
2013-02-21 04:04:00,24.0,0.0,29.89,NE,37,0.0,0.0,54,-99.99,,,-99.99,,2013-02-21 12:04:00,
2013-02-21 04:12:00,24.0,0.0,29.89,NE,53,0.0,0.0,56,-99.99,,,-99.99,,2013-02-21 12:12:00,
2013-02-21 04:20:00,24.0,0.0,29.90,WSW,238,0.0,0.0,54,-99.99,,,-99.99,,2013-02-21 12:20:00,
2013-02-21 04:28:00,24.0,0.0,29.90,SW,229,0.0,0.0,54,-99.99,,,-99.99,,2013-02-21 12:28:00,
2013-02-21 04:36:00,24.0,0.0,29.90,WSW,253,0.0,0.0,55,-99.99,,,-99.99,,2013-02-21 12:36:00,
2013-02-21 04:44:00,24.0,0.0,29.90,West,274,0.0,0.0,54,-99.99,,,-99.99,,2013-02-21 12:44:00,
2013-02-21 04:52:00,24.0,0.0,29.90,West,259,0.0,0.0,52,-99.99,,,-99.99,,2013-02-21 12:52:00,
2013-02-21 05:00:00,22.0,0.0,29.90,SW,228,0.0,0.0,53,-99.99,,,-99.99,,2013-02-21 13:00:00,
2013-02-21 05:08:00,23.0,0.0,29.90,WSW,255,0.0,0.0,53,-99.99,,,-99.99,,2013-02-21 13:08:00,
2013-02-21 05:16:00,22.0,0.0,29.91,WSW,255,0.0,0.0,53,-99.99,,,-99.99,,2013-02-21 13:16:00,
2013-02-21 05:24:00,23.0,0.0,29.91,SSW,211,0.0,0.0,55,-99.99,,,-99.99,,2013-02-21 13:24:00,
2013-02-21 05:32:00,22.0,0.0,29.90,SW,214,0.0,0.0,55,-99.99,,,-99.99,,2013-02-21 13:32:00,
2013-02-21 05:40:00,22.0,0.0,29.90,South,189,0.0,0.0,52,-99.99,,,-99.99,,2013-02-21 13:40:00,
2013-02-21 05:48:00,22.0,0.0,29.90,WSW,256,0.0,0.0,60,-99.99,,,-99.99,,2013-02-21 13:48:00,
2013-02-21 05:56:00,23.0,0.0,29.91,North,0,0.0,0.0,54,-99.99,,,-99.99,,2013-02-21 13:56:00,
2013-02-21 06:04:00,24.0,0.0,29.90,SSE,167,0.0,0.0,55,-99.99,,,-99.99,,2013-02-21 14:04:00,
2013-02-21 06:12:00,27.0,0.0,29.91,SSE,159,0.0,0.0,56,-99.99,,,-99.99,,2013-02-21 14:12:00,
2013-02-21 06:20:00,25.0,0.0,29.91,WSW,239,0.0,0.0,56,-99.99,,,-99.99,,2013-02-21 14:20:00,
2013-02-21 06:28:00,21.0,0.0,29.91,North,351,0.0,0.0,54,-99.99,,,-99.99,,2013-02-21 14:28:00,
2013-02-21 06:36:00,21.0,0.0,29.92,North,349,0.0,0.0,55,-99.99,,,-99.99,,2013-02-21 14:36:00,
2013-02-21 06:44:00,21.0,0.0,29.93,North,5,0.0,0.0,57,-99.99,,,-99.99,,2013-02-21 14:44:00,
2013-02-21 06:52:00,21.0,0.0,29.94,NNE,14,0.0,0.0,62,-99.99,,,-99.99,,2013-02-21 14:52:00,
2013-02-21 07:00:00,22.0,0.0,29.94,NW,314,0.0,0.0,61,-99.99,,,-99.99,,2013-02-21 15:00:00,
2013-02-21 07:08:00,24.0,0.0,29.95,North,350,0.0,0.0,59,-99.99,,,-99.99,,2013-02-21 15:08:00,
2013-02-21 07:16:00,26.0,0.0,29.96,NNW,334,0.0,0.0,55,-99.99,,,-99.99,,2013-02-21 15:16:00,
2013-02-21 07:24:00,26.0,0.0,29.96,NNW,348,0.0,0.0,57,-99.99,,,-99.99,,2013-02-21 15:24:00,
2013-02-21 07:32:00,28.0,0.0,29.97,NW,315,3.0,3.0,56,-99.99,,,-99.99,,2013-02-21 15:32:00,
2013-02-21 07:40:00,31.0,0.0,29.97,NNW,327,2.0,3.0,55,-99.99,,,-99.99,,2013-02-21 15:40:00,
2013-02-21 07:48:00,34.0,0.0,29.98,NW,308,5.0,5.0,53,-99.99,,,-99.99,,2013-02-21 15:48:00,
2013-02-21 07:56:00,34.0,0.0,29.98,NW,304,5.0,5.0,52,-99.99,,,-99.99,,2013-02-21 15:56:00,
2013-02-21 08:04:00,36.0,0.0,29.99,WNW,287,1.0,1.0,49,-99.99,,,-99.99,,2013-02-21 16:04:00,
2013-02-21 08:12:00,36.0,0.0,29.99,WSW,255,2.0,2.0,47,-99.99,,,-99.99,,2013-02-21 16:12:00,
2013-02-21 08:20:00,37.0,0.0,30.00,SW,232,1.0,3.0,49,-99.99,,,-99.99,,2013-02-21 16:20:00,
2013-02-21 08:28:00,36.0,0.0,30.00,SW,229,3.0,5.0,45,-99.99,,,-99.99,,2013-02-21 16:28:00,
2013-02-21 08:36:00,37.0,0.0,29.99,SW,214,2.0,2.0,46,-99.99,,,-99.99,,2013-02-21 16:36:00,
2013-02-21 08:44:00,38.0,0.0,30.00,SSW,204,3.0,3.0,43,-99.99,,,-99.99,,2013-02-21 16:44:00,
2013-02-21 08:52:00,38.0,0.0,29.99,SSW,196,3.0,5.0,43,-99.99,,,-99.99,,2013-02-21 16:52:00,
2013-02-21 09:00:00,39.0,0.0,30.00,SW,221,2.0,3.0,44,-99.99,,,-99.99,,2013-02-21 17:00:00,
2013-02-21 09:08:00,40.0,0.0,30.00,South,191,3.0,3.0,43,-99.99,,,-99.99,,2013-02-21 17:08:00,
2013-02-21 09:16:00,41.0,0.0,30.00,SE,142,5.0,5.0,43,-99.99,,,-99.99,,2013-02-21 17:16:00,
2013-02-21 09:24:00,41.0,0.0,30.00,South,181,3.0,5.0,44,-99.99,,,-99.99,,2013-02-21 17:24:00,
2013-02-21 09:32:00,41.0,0.0,30.00,South,177,5.0,5.0,45,-99.99,,,-99.99,,2013-02-21 17:32:00,
2013-02-21 09:40:00,41.0,0.0,29.99,South,183,6.0,6.0,45,-99.99,,,-99.99,,2013-02-21 17:40:00,
2013-02-21 09:48:00,41.0,0.0,30.00,SE,139,3.0,5.0,43,-99.99,,,-99.99,,2013-02-21 17:48:00,
2013-02-21 09:56:00,43.0,0.0,30.00,SSE,164,2.0,3.0,41,-99.99,,,-99.99,,2013-02-21 17:56:00,
2013-02-21 10:04:00,43.0,0.0,30.01,South,174,1.0,1.0,41,-99.99,,,-99.99,,2013-02-21 18:04:00,
2013-02-21 10:12:00,44.0,0.0,30.01,SE,131,1.0,3.0,39,-99.99,,,-99.99,,2013-02-21 18:12:00,
2013-02-21 10:20:00,44.0,0.0,30.01,SSE,149,6.0,6.0,38,-99.99,,,-99.99,,2013-02-21 18:20:00,
2013-02-21 10:28:00,45.0,0.0,30.00,SSE,162,5.0,5.0,39,-99.99,,,-99.99,,2013-02-21 18:28:00,
2013-02-21 10:36:00,46.0,0.0,30.01,SSW,205,3.0,3.0,35,-99.99,,,-99.99,,2013-02-21 18:36:00,
2013-02-21 10:44:00,0.0,0.0,-0.01,North,0,0.0,0.0,0,-99.99,,,-99.99,,2013-02-21 18:44:00,
2013-02-21 10:52:00,48.0,0.0,30.01,WSW,250,5.0,5.0,34,-99.99,,,-99.99,,2013-02-21 18:52:00,
2013-02-21 11:00:00,49.0,0.0,30.00,South,177,1.0,1.0,31,-99.99,,,-99.99,,2013-02-21 19:00:00,
2013-02-21 11:08:00,50.0,0.0,30.00,SSE,156,5.0,5.0,32,-99.99,,,-99.99,,2013-02-21 19:08:00,
2013-02-21 11:16:00,49.0,0.0,30.00,SSE,151,6.0,6.0,29,-99.99,,,-99.99,,2013-02-21 19:16:00,
2013-02-21 11:24:00,0.0,0.0,-0.01,North,0,0.0,0.0,0,-99.99,,,-99.99,,2013-02-21 19:24:00,
2013-02-21 11:32:00,52.0,0.0,29.99,SSE,154,13.0,13.0,30,-99.99,,,-99.99,,2013-02-21 19:32:00,
2013-02-21 11:40:00,52.0,0.0,29.99,SSE,154,6.0,7.0,29,-99.99,,,-99.99,,2013-02-21 19:40:00,
2013-02-21 11:48:00,52.0,0.0,29.99,South,174,5.0,7.0,29,-99.99,,,-99.99,,2013-02-21 19:48:00,
2013-02-21 11:56:00,53.0,0.0,29.98,SE,137,6.0,6.0,26,-99.99,,,-99.99,,2013-02-21 19:56:00,
2013-02-21 12:04:00,52.0,0.0,29.98,SSW,206,3.0,3.0,27,-99.99,,,-99.99,,2013-02-21 20:04:00,
2013-02-21 12:12:00,53.0,0.0,29.97,South,172,3.0,3.0,24,-99.99,,,-99.99,,2013-02-21 20:12:00,
2013-02-21 12:20:00,53.0,0.0,29.97,SSE,166,5.0,6.0,26,-99.99,,,-99.99,,2013-02-21 20:20:00,
2013-02-21 12:28:00,54.0,0.0,29.97,NNE,25,3.0,5.0,26,-99.99,,,-99.99,,2013-02-21 20:28:00,
2013-02-21 12:36:00,54.0,0.0,29.97,ESE,119,3.0,3.0,27,-99.99,,,-99.99,,2013-02-21 20:36:00,
2013-02-21 12:44:00,54.0,0.0,29.96,WSW,240,2.0,3.0,23,-99.99,,,-99.99,,2013-02-21 20:44:00,
2013-02-21 12:52:00,57.0,0.0,29.96,WNW,296,2.0,2.0,22,-99.99,,,-99.99,,2013-02-21 20:52:00,
2013-02-21 13:00:00,56.0,0.0,29.96,SE,127,6.0,6.0,21,-99.99,,,-99.99,,2013-02-21 21:00:00,
2013-02-21 13:08:00,55.0,0.0,29.95,SE,125,2.0,6.0,22,-99.99,,,-99.99,,2013-02-21 21:08:00,
2013-02-21 13:16:00,55.0,0.0,29.95,ESE,121,5.0,5.0,21,-99.99,,,-99.99,,2013-02-21 21:16:00,
2013-02-21 13:24:00,0.0,0.0,-0.01,North,0,0.0,0.0,0,-99.99,,,-99.99,,2013-02-21 21:24:00,
2013-02-21 13:32:00,56.0,0.0,29.95,ESE,121,9.0,9.0,23,-99.99,,,-99.99,,2013-02-21 21:32:00,
2013-02-21 13:40:00,55.0,0.0,29.94,ENE,67,10.0,14.0,22,-99.99,,,-99.99,,2013-02-21 21:40:00,
2013-02-21 13:48:00,55.0,0.0,29.95,SW,217,10.0,10.0,20,-99.99,,,-99.99,,2013-02-21 21:48:00,
2013-02-21 13:56:00,55.0,0.0,29.95,ENE,64,6.0,9.0,20,-99.99,,,-99.99,,2013-02-21 21:56:00,
2013-02-21 14:04:00,56.0,0.0,29.94,SW,214,3.0,5.0,22,-99.99,,,-99.99,,2013-02-21 22:04:00,
2013-02-21 14:12:00,56.0,0.0,29.94,SSE,156,2.0,2.0,21,-99.99,,,-99.99,,2013-02-21 22:12:00,
2013-02-21 14:20:00,58.0,0.0,29.94,North,361,2.0,6.0,17,-99.99,,,-99.99,,2013-02-21 22:20:00,
2013-02-21 14:28:00,57.0,0.0,29.94,NE,40,14.0,14.0,16,-99.99,,,-99.99,,2013-02-21 22:28:00,
2013-02-21 14:36:00,55.0,0.0,29.94,ESE,118,13.0,14.0,22,-99.99,,,-99.99,,2013-02-21 22:36:00,
2013-02-21 14:44:00,55.0,0.0,29.95,SE,129,10.0,13.0,19,-99.99,,,-99.99,,2013-02-21 22:44:00,
2013-02-21 14:52:00,55.0,0.0,29.94,East,99,8.0,12.0,20,-99.99,,,-99.99,,2013-02-21 22:52:00,
2013-02-21 15:00:00,55.0,0.0,29.94,ESE,123,10.0,10.0,23,-99.99,,,-99.99,,2013-02-21 23:00:00,
2013-02-21 15:08:00,55.0,0.0,29.94,ESE,106,10.0,10.0,23,-99.99,,,-99.99,,2013-02-21 23:08:00,
2013-02-21 15:16:00,55.0,0.0,29.94,South,181,3.0,6.0,22,-99.99,,,-99.99,,2013-02-21 23:16:00,
2013-02-21 15:24:00,56.0,0.0,29.94,East,98,16.0,16.0,18,-99.99,,,-99.99,,2013-02-21 23:24:00,
2013-02-21 15:32:00,57.0,0.0,29.94,NNE,20,14.0,15.0,15,-99.99,,,-99.99,,2013-02-21 23:32:00,
2013-02-21 15:40:00,58.0,0.0,29.94,NE,35,12.0,12.0,16,-99.99,,,-99.99,,2013-02-21 23:40:00,
2013-02-21 15:48:00,57.0,0.0,29.94,North,1,16.0,16.0,15,-99.99,,,-99.99,,2013-02-21 23:48:00,
2013-02-21 15:56:00,57.0,0.0,29.94,NNE,16,9.0,12.0,17,-99.99,,,-99.99,,2013-02-21 23:56:00,
2013-02-21 16:04:00,57.0,0.0,29.94,North,0,13.0,15.0,17,-99.99,,,-99.99,,2013-02-22 00:04:00,
2013-02-21 16:12:00,57.0,0.0,29.93,NE,40,16.0,16.0,17,-99.99,,,-99.99,,2013-02-22 00:12:00,
2013-02-21 16:20:00,56.0,0.0,29.94,NE,55,8.0,13.0,17,-99.99,,,-99.99,,2013-02-22 00:20:00,
2013-02-21 16:28:00,56.0,0.0,29.94,NE,53,13.0,13.0,18,-99.99,,,-99.99,,2013-02-22 00:28:00,
2013-02-21 16:36:00,56.0,0.0,29.94,NE,40,10.0,13.0,17,-99.99,,,-99.99,,2013-02-22 00:36:00,
2013-02-21 16:44:00,56.0,0.0,29.94,NE,44,8.0,9.0,17,-99.99,,,-99.99,,2013-02-22 00:44:00,
2013-02-21 16:52:00,56.0,0.0,29.95,NE,39,12.0,12.0,18,-99.99,,,-99.99,,2013-02-22 00:52:00,
2013-02-21 17:00:00,55.0,0.0,29.95,NE,37,8.0,12.0,18,-99.99,,,-99.99,,2013-02-22 01:00:00,
2013-02-21 17:08:00,55.0,0.0,29.95,NE,49,10.0,10.0,17,-99.99,,,-99.99,,2013-02-22 01:08:00,
2013-02-21 17:16:00,55.0,0.0,29.95,NE,36,9.0,9.0,16,-99.99,,,-99.99,,2013-02-22 01:16:00,
2013-02-21 17:24:00,54.0,0.0,29.95,NNE,26,9.0,9.0,16,-99.99,,,-99.99,,2013-02-22 01:24:00,
2013-02-21 17:32:00,53.0,0.0,29.96,NE,34,7.0,8.0,16,-99.99,,,-99.99,,2013-02-22 01:32:00,
2013-02-21 17:40:00,52.0,0.0,29.96,NNE,32,5.0,6.0,18,-99.99,,,-99.99,,2013-02-22 01:40:00,
2013-02-21 17:48:00,51.0,0.0,29.96,NE,46,6.0,7.0,17,-99.99,,,-99.99,,2013-02-22 01:48:00,
2013-02-21 17:56:00,50.0,0.0,29.97,SE,125,6.0,6.0,18,-99.99,,,-99.99,,2013-02-22 01:56:00,
2013-02-21 18:04:00,50.0,0.0,29.97,South,188,3.0,3.0,20,-99.99,,,-99.99,,2013-02-22 02:04:00,
2013-02-21 18:12:00,50.0,0.0,29.98,SE,141,1.0,1.0,19,-99.99,,,-99.99,,2013-02-22 02:12:00,
2013-02-21 18:20:00,49.0,0.0,29.98,West,274,1.0,2.0,20,-99.99,,,-99.99,,2013-02-22 02:20:00,
2013-02-21 18:28:00,49.0,0.0,29.99,WSW,245,3.0,3.0,19,-99.99,,,-99.99,,2013-02-22 02:28:00,
2013-02-21 18:36:00,48.0,0.0,29.99,West,269,5.0,5.0,21,-99.99,,,-99.99,,2013-02-22 02:36:00,
2013-02-21 18:44:00,48.0,0.0,30.00,West,261,7.0,7.0,22,-99.99,,,-99.99,,2013-02-22 02:44:00,
2013-02-21 18:52:00,46.0,0.0,30.00,West,270,7.0,8.0,21,-99.99,,,-99.99,,2013-02-22 02:52:00,
2013-02-21 19:00:00,47.0,0.0,30.01,West,267,8.0,8.0,23,-99.99,,,-99.99,,2013-02-22 03:00:00,
2013-02-21 19:08:00,45.0,0.0,30.01,West,273,6.0,6.0,24,-99.99,,,-99.99,,2013-02-22 03:08:00,
2013-02-21 19:16:00,44.0,0.0,30.02,WSW,254,7.0,7.0,22,-99.99,,,-99.99,,2013-02-22 03:16:00,
2013-02-21 19:24:00,44.0,0.0,30.02,West,274,7.0,7.0,25,-99.99,,,-99.99,,2013-02-22 03:24:00,
2013-02-21 19:32:00,43.0,0.0,30.02,WSW,255,8.0,8.0,24,-99.99,,,-99.99,,2013-02-22 03:32:00,
2013-02-21 19:40:00,42.0,0.0,30.02,West,267,7.0,7.0,24,-99.99,,,-99.99,,2013-02-22 03:40:00,
2013-02-21 19:48:00,40.0,0.0,30.02,NNW,345,5.0,5.0,25,-99.99,,,-99.99,,2013-02-22 03:48:00,
2013-02-21 19:56:00,40.0,0.0,30.03,WSW,242,6.0,6.0,25,-99.99,,,-99.99,,2013-02-22 03:56:00,
2013-02-21 20:04:00,41.0,0.0,30.03,West,263,6.0,6.0,27,-99.99,,,-99.99,,2013-02-22 04:04:00,
2013-02-21 20:12:00,39.0,0.0,30.04,West,259,6.0,6.0,28,-99.99,,,-99.99,,2013-02-22 04:12:00,
2013-02-21 20:20:00,37.0,0.0,30.04,SSW,211,3.0,3.0,27,-99.99,,,-99.99,,2013-02-22 04:20:00,
2013-02-21 20:28:00,37.0,0.0,30.03,South,189,3.0,5.0,27,-99.99,,,-99.99,,2013-02-22 04:28:00,
2013-02-21 20:36:00,34.0,0.0,30.03,SE,146,5.0,5.0,31,-99.99,,,-99.99,,2013-02-22 04:36:00,
2013-02-21 20:44:00,36.0,0.0,30.03,SSE,155,5.0,5.0,31,-99.99,,,-99.99,,2013-02-22 04:44:00,
2013-02-21 20:52:00,36.0,0.0,30.03,South,176,5.0,5.0,30,-99.99,,,-99.99,,2013-02-22 04:52:00,
2013-02-21 21:00:00,36.0,0.0,30.03,South,183,6.0,6.0,34,-99.99,,,-99.99,,2013-02-22 05:00:00,
2013-02-21 21:04:00,37.0,0.0,30.04,South,190,3.0,5.0,38,-99.99,,,-99.99,,2013-02-22 05:04:00,
2013-02-21 21:12:00,38.0,0.0,30.04,South,187,3.0,3.0,38,-99.99,,,-99.99,,2013-02-22 05:12:00,
2013-02-21 21:16:00,36.0,0.0,30.04,NNE,28,2.0,2.0,35,-99.99,,,-99.99,,2013-02-22 05:16:00,
2013-02-21 21:20:00,35.0,0.0,30.05,ESE,108,1.0,1.0,38,-99.99,,,-99.99,,2013-02-22 05:20:00,
2013-02-21 21:28:00,35.0,0.0,30.05,East,92,3.0,3.0,38,-99.99,,,-99.99,,2013-02-22 05:28:00,
2013-02-21 21:36:00,35.0,0.0,30.05,ENE,58,5.0,5.0,36,-99.99,,,-99.99,,2013-02-22 05:36:00,
2013-02-21 21:44:00,31.0,0.0,30.05,ENE,64,5.0,5.0,40,-99.99,,,-99.99,,2013-02-22 05:44:00,
2013-02-21 21:52:00,33.0,0.0,30.06,NNE,15,3.0,3.0,37,-99.99,,,-99.99,,2013-02-22 05:52:00,
2013-02-21 22:00:00,31.0,0.0,30.06,SSW,209,5.0,5.0,37,-99.99,,,-99.99,,2013-02-22 06:00:00,
2013-02-21 22:08:00,32.0,0.0,30.06,WSW,254,2.0,2.0,39,-99.99,,,-99.99,,2013-02-22 06:08:00,
2013-02-21 22:16:00,31.0,0.0,30.06,NW,321,8.0,8.0,39,-99.99,,,-99.99,,2013-02-22 06:16:00,
2013-02-21 22:24:00,30.0,0.0,30.06,NNW,335,9.0,9.0,36,-99.99,,,-99.99,,2013-02-22 06:24:00,
2013-02-21 22:32:00,32.0,0.0,30.05,North,361,7.0,8.0,35,-99.99,,,-99.99,,2013-02-22 06:32:00,
2013-02-21 22:40:00,31.0,0.0,30.05,North,361,7.0,8.0,38,-99.99,,,-99.99,,2013-02-22 06:40:00,
2013-02-21 22:48:00,32.0,0.0,30.05,North,361,8.0,8.0,37,-99.99,,,-99.99,,2013-02-22 06:48:00,
2013-02-21 22:56:00,32.0,0.0,30.06,NNE,15,5.0,6.0,38,-99.99,,,-99.99,,2013-02-22 06:56:00,
2013-02-21 23:04:00,32.0,0.0,30.06,NNE,28,3.0,3.0,39,-99.99,,,-99.99,,2013-02-22 07:04:00,
2013-02-21 23:12:00,32.0,0.0,30.06,ENE,76,3.0,5.0,36,-99.99,,,-99.99,,2013-02-22 07:12:00,
2013-02-21 23:20:00,31.0,0.0,30.06,South,189,3.0,3.0,38,-99.99,,,-99.99,,2013-02-22 07:20:00,
2013-02-21 23:28:00,30.0,0.0,30.06,SSW,210,3.0,3.0,40,-99.99,,,-99.99,,2013-02-22 07:28:00,
2013-02-21 23:36:00,29.0,0.0,30.07,SSW,205,5.0,6.0,38,-99.99,,,-99.99,,2013-02-22 07:36:00,
2013-02-21 23:44:00,31.0,0.0,30.07,SSW,200,3.0,3.0,40,-99.99,,,-99.99,,2013-02-22 07:44:00,
2013-02-21 23:52:00,33.0,0.0,30.07,SW,234,2.0,3.0,36,-99.99,,,-99.99,,2013-02-22 07:52:00,